Flag Weather past 2 weeks in Quito, Ecuador

Now
50 °F

Passing clouds.


Feels Like: 48 °F
Forecast: 48 / 66 °F
Wind: 5 mph from North

Location: Latacunga Airport

Current Time: Nov 24, 2014 at 4:51:07 AM

Latest Report: Nov 24, 2014 at 4:00 AM


Visibility: N/A

Pressure: 30.36 "Hg

Humidity: 100%

Dew point: 50 °F

Location of QuitoLocation

Historic Weather in Quito — Graph

°F

Quito temperature yesterday

Maximum temperature yesterday: 66 °F (at 3:00 PM)
Minimum temperature yesterday: 50 °F (at 2:00 AM)
Average temperature yesterday: 56 °F

Past Weeks' High & Low Weather Summary

 TemperatureHumidityPressure
High73 °F (Nov 9, 1:00 PM)100% (Nov 9, 5:00 AM)30.48 "Hg (Nov 9, 5:00 AM)
Low41 °F (Nov 15, 6:00 AM)30% (Nov 15, 12:00 PM)30.24 "Hg (Nov 20, 3:00 PM)
Average57 °F80%30.38 "Hg
* Reported Nov 9 4:00 AM — Nov 24 4:00 AM, Quito, Weather by CustomWeather, © 2014

Note: Actual official high and low records may vary slightly from our data, if they occured in-between our weather recording intervals... More about our weather records

Advertising

Quito weather history for previous 24 hours

 ConditionsComfort  
Time TempWeatherWind HumidityBarometerVisibility
4:00 AM
Nov 24
50 °FPassing clouds.5 mph100%30.36 "HgN/A
3:00 AM52 °FPassing clouds.5 mph94%30.42 "HgN/A
2:00 AM52 °FPassing clouds.6 mph94%30.42 "HgN/A
1:00 AM52 °FPassing clouds.7 mph94%30.45 "HgN/A
12:00 AM52 °FPassing clouds.6 mph94%30.39 "HgN/A
11:00 PM
Nov 23
54 °FSnow. Smoke.8 mph88%30.39 "HgN/A
10:00 PM54 °FPassing clouds.6 mph88%30.39 "HgN/A
9:00 PM54 °FPassing clouds.7 mph88%30.33 "HgN/A
8:00 PM55 °FPassing clouds.12 mph82%30.30 "HgN/A
7:00 PM57 °FPassing clouds.12 mph77%30.30 "HgN/A
6:00 PM57 °FBroken clouds.16 mph82%30.27 "HgN/A
5:00 PM61 °FBroken clouds.18 mph77%30.24 "HgN/A
4:00 PM63 °FBroken clouds.15 mph73%30.24 "HgN/A
3:00 PM66 °FPartly sunny.17 mph64%30.27 "HgN/A
2:00 PM64 °FPartly sunny.12 mph68%30.27 "HgN/A
1:00 PM61 °FPartly sunny.13 mph77%30.33 "HgN/A
12:00 PM63 °FPartly sunny.14 mph68%30.33 "HgN/A
11:00 AM61 °FPartly sunny.9 mph77%30.36 "HgN/A
10:00 AM61 °FPartly sunny.12 mph77%30.39 "HgN/A
9:00 AM55 °FPartly sunny.7 mph94%30.39 "HgN/A
8:00 AM54 °FPartly sunny.5 mph88%30.39 "HgN/A
7:00 AM54 °FPartly sunny.No wind94%30.36 "Hg5 mi
6:00 AM50 °FPartly sunny.2 mph100%30.36 "HgN/A
5:00 AM50 °FPassing clouds.2 mph100%30.36 "HgN/A
4:00 AM50 °FPassing clouds.2 mph100%30.33 "HgN/A
Weather by CustomWeather, © 2014

See weather overviewHow to use our weather pages